TimeMDT,TemperatureF,Dew PointF,Humidity,Sea Level PressureIn,VisibilityMPH,Wind Direction,Wind SpeedMPH,Gust SpeedMPH,PrecipitationIn,Events,Conditions,WindDirDegrees,DateUTC
12:53 AM,27.0,21.0,78,30.22,10.0,Calm,Calm,-,N/A,,Clear,0,2013-10-07 06:53:00
1:53 AM,28.0,23.0,81,30.20,10.0,ENE,4.6,-,N/A,,Clear,70,2013-10-07 07:53:00
2:53 AM,28.0,23.0,81,30.18,10.0,Calm,Calm,-,N/A,,Clear,0,2013-10-07 08:53:00
3:53 AM,25.0,19.0,78,30.17,10.0,Calm,Calm,-,N/A,,Clear,0,2013-10-07 09:53:00
4:53 AM,27.0,21.9,81,30.15,10.0,Calm,Calm,-,N/A,,Clear,0,2013-10-07 10:53:00
5:53 AM,27.0,21.9,81,30.14,10.0,Calm,Calm,-,N/A,,Clear,0,2013-10-07 11:53:00
6:53 AM,25.0,19.9,81,30.20,10.0,Calm,Calm,-,N/A,,Clear,0,2013-10-07 12:53:00
7:53 AM,26.1,21.0,81,30.22,10.0,WNW,3.5,-,N/A,,Clear,290,2013-10-07 13:53:00
8:53 AM,32.0,25.0,75,30.20,10.0,Calm,Calm,-,N/A,,Clear,0,2013-10-07 14:53:00
9:53 AM,39.0,24.1,55,30.18,10.0,Calm,Calm,-,N/A,,Clear,0,2013-10-07 15:53:00
10:53 AM,46.0,24.1,42,30.16,10.0,East,4.6,-,N/A,,Clear,100,2013-10-07 16:53:00
11:53 AM,52.0,26.1,37,30.11,10.0,SSE,4.6,-,N/A,,Clear,150,2013-10-07 17:53:00
12:53 PM,52.0,27.0,38,30.08,10.0,SSE,3.5,-,N/A,,Clear,160,2013-10-07 18:53:00
1:53 PM,62.1,30.0,30,29.99,10.0,SE,4.6,-,N/A,,Clear,130,2013-10-07 19:53:00
2:53 PM,64.0,28.9,27,29.95,10.0,SSW,5.8,-,N/A,,Clear,200,2013-10-07 20:53:00
3:53 PM,66.0,30.0,26,29.92,10.0,Variable,4.6,-,N/A,,Clear,0,2013-10-07 21:53:00
4:53 PM,64.9,28.0,25,29.90,10.0,SSW,5.8,-,N/A,,Clear,200,2013-10-07 22:53:00
5:53 PM,66.0,21.9,19,29.88,10.0,West,5.8,-,N/A,,Clear,260,2013-10-07 23:53:00
6:53 PM,57.9,18.0,21,29.94,10.0,WSW,8.1,-,N/A,,Clear,240,2013-10-08 00:53:00
7:53 PM,55.9,18.0,23,29.93,10.0,SW,12.7,-,N/A,,Clear,230,2013-10-08 01:53:00
8:53 PM,48.9,19.9,32,29.94,10.0,West,6.9,-,N/A,,Clear,280,2013-10-08 02:53:00
9:53 PM,50.0,19.0,29,29.90,10.0,WSW,12.7,-,N/A,,Clear,250,2013-10-08 03:53:00
10:53 PM,48.9,19.0,31,29.86,10.0,WSW,5.8,-,N/A,,Clear,250,2013-10-08 04:53:00
11:53 PM,41.0,25.0,53,29.86,10.0,Calm,Calm,-,N/A,,Clear,0,2013-10-08 05:53:00